This demonstration page uses our WeatherBlox Daily Observations layout. Learn more.

Left ArrowRight Arrow

Hourly Observations for April 29, 2017

Temp ( °F °C ) Dew Point ( °F °C ) Humidity (%) Winds ( mph kmh ) Pressure ( in mb ) Visibility ( mi km ) Precip ( " mm )
12:53 am 00:53 Clear 50 10 36 2.2 59 59 N 3 6 30.13 1020 10 16 0.00 0.00
1:53 am 01:53 Clear 49 9.4 37 2.8 64 64 Calm 30.14 1021 10 16 0.00 0.00
2:53 am 02:53 Clear 48 8.9 38 3.3 68 68 NNW 5 7 30.14 1021 10 16 0.00 0.00
3:53 am 03:53 Clear 46 7.8 38 3.3 73 73 N 5 7 30.14 1021 10 16 0.00 0.00
4:53 am 04:53 Clear 45 7.2 38 3.3 77 77 Calm 30.15 1021 10 16 0.00 0.00
5:53 am 05:53 Clear 47 8.3 36 2.2 66 66 NNW 3 6 30.15 1021 10 16 0.00 0.00
6:53 am 06:53 Sunny 52 11.1 36 2.2 55 55 VRB 3 6 30.16 1021 10 16 0.00 0.00
7:53 am 07:53 Sunny 57 13.9 39 3.9 51 51 WNW 5 7 30.17 1022 10 16 0.00 0.00
8:53 am 08:53 Sunny 63 17.2 35 1.7 35 35 N 8 13 30.17 1022 10 16 0.00 0.00
9:53 am 09:53 Sunny 67 19.4 34 1.1 30 30 N 10 17 30.17 1022 10 16 0.00 0.00
10:53 am 10:53 Sunny 72 22.2 36 2.2 27 27 N 10 17 30.15 1021 10 16 0.00 0.00
11:53 am 11:53 Sunny 74 23.3 34 1.1 23 23 NE 6 9 30.14 1021 10 16 0.00 0.00
12:53 pm 12:53 Sunny 76 24.4 33 0.6 21 21 NNW 7 11 30.11 1020 10 16 0.00 0.00
1:53 pm 13:53 Sunny 78 25.6 30 -1.1 17 17 N 10 17 30.09 1019 10 16 0.00 0.00
2:53 pm 14:53 Sunny 81 27.2 28 -2.2 14 14 VRB 5 7 30.07 1018 10 16 0.00 0.00
3:53 pm 15:53 Sunny 83 28.3 33 0.6 17 17 NNE 10 17 30.04 1017 10 16 0.00 0.00
4:53 pm 16:53 Sunny 82 27.8 29 -1.7 14 14 Calm 30.02 1017 10 16 0.00 0.00
5:53 pm 17:53 Sunny 80 26.7 34 1.1 19 19 W 5 7 30.01 1016 10 16 0.00 0.00
6:53 pm 18:53 Sunny 80 26.7 39 3.9 23 23 Calm 30.01 1016 10 16 0.00 0.00
7:53 pm 19:53 Sunny 69 20.6 45 7.2 42 42 WSW 3 6 30.01 1016 10 16 0.00 0.00
8:53 pm 20:53 Clear 66 18.9 44 6.7 45 45 Calm 30.02 1017 10 16 0.00 0.00
9:53 pm 21:53 Clear 63 17.2 48 8.9 58 58 N 5 7 30.05 1018 10 16 0.00 0.00
10:53 pm 22:53 Clear 59 15 49 9.4 69 69 E 3 6 30.06 1018 10 16 0.00 0.00
11:53 pm 23:53 Clear 57 13.9 48 8.9 72 72 N 5 7 30.07 1018 10 16 0.00 0.00

Powered by AerisWeather